Coraopolis, PA

4:36 AM EST on February 22, 2017 (GMT -0500)
Pittsburgh International

Weather History for KPIT - December, 2013

Change the Weather History Date:

Friday, December 6, 2013

  Actual Average Record
Temperature  
Mean Temperature 34 °F 35 °F  
Max Temperature 39 °F 42 °F 70 °F (1998)
Min Temperature 29 °F 28 °F 7 °F (2007)
Degree Days  
Heating Degree Days 31 30  
Month to date heating degree days 135 173  
Since 1 July heating degree days 1303 1336  
Cooling Degree Days 0 0  
Month to date cooling degree days 0 0  
Year to date cooling degree days 831 736  
Moisture  
Dew Point 30 °F    
Average Humidity 87    
Maximum Humidity 92    
Minimum Humidity 82    
Precipitation  
Precipitation 0.53 in 0.10 in 1.23 in (1971)
Month to date precipitation 1.01 0.58  
Year to date precipitation 34.40 35.92  
Snow  
Snow 2.00 in 0.20 in 2.50 in (1937)
Month to date snowfall 2.0 1.2  
Since 1 July snowfall 11.4 3.6  
Snow Depth 0.00 in    
Sea Level Pressure  
Sea Level Pressure 30.18 in    
Wind  
Wind Speed 9 mph (NNW)    
Max Wind Speed 16 mph    
Max Gust Speed 22 mph    
Visibility 5 miles    
Events Rain , Snow    
T = Trace of Precipitation, MM = Missing Value Source: NWS Daily Summary

Daily Weather History Graph

Daily Weather History Graph

Search for Another Location

Airport or City:

Trip Planner

Search our weather history database for the weather conditions in past years. The results will help you decide how hot, cold, wet, or windy it might be!

Date:

Astronomy

Dec. 06, 2013 Rise Set
Actual Time 7:30 AM EST 4:54 PM EST
Civil Twilight 6:59 AM EST 5:24 PM EST
Nautical Twilight 6:25 AM EST 5:58 PM EST
Astronomical Twilight 5:52 AM EST 6:31 PM EST
Moon 10:33 AM EST (12/6) 9:24 PM EST (12/6)
Length of Visible Light 10h 25m
Length of Day
9h 24m
Waxing Crescent, 19% of the Moon is Illuminated
Dec 6
Waxing Crescent
Dec 9
First Quarter
Dec 17
Full
Dec 25
Last Quarter
Jan 1
New

Hourly Weather History & Observations

Time (EST) Temp. Windchill Dew Point Humidity Pressure Visibility Wind Dir Wind Speed Gust Speed Precip Events Conditions
12:51 AM 37.0 °F 28.5 °F 34.0 °F 89% 30.10 in 7.0 mi NNW 13.8 mph - 0.05 in Rain Light Rain
1:44 AM 37.4 °F 30.8 °F 33.8 °F 87% 30.10 in 4.0 mi WNW 9.2 mph - 0.03 in Rain Light Rain
1:51 AM 37.0 °F 28.9 °F 34.0 °F 89% 30.14 in 2.5 mi WNW 12.7 mph - 0.04 in Rain Rain
2:19 AM 35.6 °F 28.6 °F 33.8 °F 93% 30.05 in 4.0 mi North 9.2 mph - 0.07 in Rain Light Rain
2:51 AM 36.0 °F 30.3 °F 34.0 °F 93% 30.09 in 6.0 mi NNW 6.9 mph - 0.09 in   Overcast
3:42 AM 35.6 °F 28.6 °F 33.8 °F 93% 30.09 in 4.0 mi NNW 9.2 mph - 0.00 in Rain Light Rain
3:51 AM 35.1 °F 28.6 °F 33.1 °F 92% 30.12 in 3.0 mi NNW 8.1 mph - 0.00 in Rain Light Rain
4:51 AM 35.1 °F 30.1 °F 33.1 °F 92% 30.12 in 4.0 mi NNW 5.8 mph - 0.01 in   Light Drizzle
5:51 AM 35.1 °F 28.6 °F 32.0 °F 89% 30.14 in 6.0 mi NNW 8.1 mph - 0.00 in Rain Light Rain
6:31 AM 33.8 °F 27.0 °F 32.0 °F 93% 30.15 in 6.0 mi NW 8.1 mph - 0.02 in Rain , Snow Light Rain
6:51 AM 34.0 °F 29.8 °F 32.0 °F 92% 30.18 in 6.0 mi NNW 4.6 mph - 0.03 in Rain , Snow Light Rain
7:51 AM 34.0 °F 27.2 °F 32.0 °F 92% 30.17 in 8.0 mi NNW 8.1 mph - 0.02 in   Light Drizzle
8:43 AM 35.6 °F 28.6 °F 32.0 °F 87% 30.14 in 10.0 mi NNW 9.2 mph - 0.00 in   Overcast
8:51 AM 34.0 °F 27.2 °F 32.0 °F 92% 30.18 in 10.0 mi NNW 8.1 mph - 0.00 in   Overcast
9:41 AM 35.6 °F 31.7 °F 32.0 °F 87% 30.17 in 10.0 mi NW 4.6 mph - 0.00 in   Light Drizzle
9:51 AM 35.1 °F 31.0 °F 30.9 °F 85% 30.22 in 10.0 mi NNW 4.6 mph - 0.00 in Rain Light Rain
10:23 AM 33.8 °F 25.3 °F 30.2 °F 87% 30.18 in 10.0 mi NNW 11.5 mph - 0.00 in   Overcast
10:51 AM 34.0 °F 26.6 °F 30.0 °F 85% 30.21 in 10.0 mi North 9.2 mph - 0.00 in   Overcast
11:51 AM 34.0 °F 28.0 °F 28.9 °F 82% 30.19 in 10.0 mi North 6.9 mph - N/A   Overcast
12:29 PM 33.8 °F 27.0 °F 30.2 °F 87% 30.16 in 10.0 mi NNW 8.1 mph - N/A   Overcast
12:51 PM 35.1 °F 29.3 °F 30.0 °F 82% 30.18 in 10.0 mi North 6.9 mph - 0.00 in Rain , Snow Light Rain
1:51 PM 35.1 °F 27.4 °F 30.9 °F 85% 30.17 in 7.0 mi North 10.4 mph - 0.00 in Rain Light Rain
2:19 PM 33.8 °F 24.8 °F 28.4 °F 81% 30.13 in 7.0 mi NNW 12.7 mph - 0.00 in Rain , Snow Light Rain
2:51 PM 34.0 °F 25.0 °F 28.9 °F 82% 30.17 in 5.0 mi North 12.7 mph - 0.00 in Rain , Snow Light Rain
3:03 PM 33.8 °F 25.8 °F 28.4 °F 81% 30.13 in 7.0 mi North 10.4 mph - 0.00 in Snow Light Snow
3:31 PM 33.8 °F 25.8 °F 28.4 °F 81% 30.14 in 1.5 mi North 10.4 mph - 0.01 in Snow Light Snow
3:36 PM 33.8 °F 25.3 °F 28.4 °F 81% 30.14 in 0.8 mi North 11.5 mph - 0.02 in Snow Light Snow
3:51 PM 32.0 °F 21.6 °F 28.9 °F 88% 30.19 in 3.0 mi North 15.0 mph - 0.05 in Snow Light Snow
4:03 PM 32.0 °F 23.6 °F 28.4 °F 87% 30.13 in 3.0 mi North 10.4 mph 19.6 mph 0.01 in Rain , Snow Light Freezing Rain
4:51 PM 32.0 °F 24.2 °F 28.9 °F 88% 30.17 in 7.0 mi NNE 9.2 mph - 0.02 in Rain , Snow Light Freezing Rain
5:00 PM 32.0 °F 23.6 °F 28.4 °F 87% 30.14 in 7.0 mi North 10.4 mph 18.4 mph 0.00 in Snow Light Snow
5:30 PM 30.2 °F 20.8 °F 26.6 °F 86% 30.16 in 4.0 mi North 11.5 mph - 0.00 in Snow Light Snow
5:36 PM 30.2 °F 20.2 °F 26.6 °F 86% 30.17 in 1.5 mi North 12.7 mph 20.7 mph 0.00 in Snow Light Snow
5:51 PM 30.9 °F 22.8 °F 28.0 °F 89% 30.23 in 1.0 mi North 9.2 mph - 0.01 in Snow Light Snow
6:51 PM 30.0 °F 20.5 °F 28.0 °F 92% 30.23 in 0.8 mi North 11.5 mph - 0.04 in Snow Light Snow
7:51 PM 30.0 °F 24.1 °F 28.0 °F 92% 30.27 in 1.5 mi NNW 5.8 mph - 0.04 in Snow Light Snow
8:26 PM 30.2 °F 21.9 °F 28.4 °F 93% 30.23 in 0.8 mi NW 9.2 mph - 0.02 in Snow Light Snow
8:37 PM 30.2 °F 22.6 °F 28.4 °F 93% 30.21 in 0.8 mi North 8.1 mph - 0.03 in Snow Light Snow
8:51 PM 30.0 °F 23.2 °F 28.0 °F 92% 30.28 in 1.2 mi NNW 6.9 mph - 0.04 in Snow Light Snow
9:14 PM 28.4 °F 19.7 °F 26.6 °F 93% 30.20 in 3.0 mi North 9.2 mph - 0.00 in Snow Light Snow
9:51 PM 30.0 °F 21.1 °F 27.0 °F 88% 30.29 in 2.0 mi North 10.4 mph - 0.00 in Snow Light Snow
10:41 PM 28.4 °F 18.0 °F 26.6 °F 93% 30.24 in 3.0 mi NNW 12.7 mph - 0.01 in Snow Light Snow
10:51 PM 28.9 °F 18.2 °F 27.0 °F 92% 30.32 in 4.0 mi NNW 13.8 mph - 0.01 in Snow Light Snow
11:51 PM 28.9 °F 20.4 °F 26.1 °F 89% 30.32 in 6.0 mi NNW 9.2 mph - 0.00 in Snow Light Snow